Theta_e
311 312 313 314 314 314 314 314 315 316 316 317 316 314 314 314 315 319 326 328 330 329 328 337 337 337 336 338 339 342 343 346 344 347 349 348 351 350 348 352 350 350 345 346 344
311 312 312 313 313 313 313 314 315 316 316 316 317 314 315 315 325 325 323 322 328 327 331 334 338 338 339 338 339 343 342 343 343 344 346 349 350 351 351 352 353 351 347 345 343
311 311 312 312 312 312 313 315 316 316 316 316 317 316 315 317 333 326 321 324 325 326 331 332 335 338 339 337 338 340 341 343 344 345 346 347 348 347 350 351 352 351 349 345 343
314 312 312 312 312 312 313 315 316 316 316 316 317 317 316 331 333 333 321 325 326 329 332 333 338 339 339 337 336 337 338 343 346 345 344 345 346 348 349 349 350 347 346 345 344
319 316 313 312 312 312 313 315 316 316 316 317 317 317 326 336 333 332 321 325 326 329 332 339 339 339 337 336 336 337 340 344 346 346 348 345 347 349 350 349 347 347 347 347 346
321 320 317 314 312 312 313 314 315 316 317 317 317 317 332 334 331 328 325 325 330 332 335 337 338 338 337 336 339 339 342 345 347 347 348 348 349 348 350 349 348 348 349 348 347
320 320 320 315 313 312 313 314 315 316 318 318 317 324 331 332 329 328 329 331 332 333 338 335 335 337 337 338 339 339 343 347 349 350 350 336 345 350 349 349 350 350 349 349 349
320 320 320 318 314 313 313 315 316 316 320 318 318 330 332 329 328 328 330 332 332 333 333 334 334 338 338 339 339 340 340 352 347 350 352 351 360 351 349 350 351 349 350 350 349
320 320 320 320 316 313 314 315 316 320 320 318 330 333 330 326 327 329 330 332 334 334 333 332 336 339 338 338 339 339 346 345 345 347 349 351 355 353 350 351 352 351 350 350 352
320 320 320 320 316 313 315 316 320 322 323 328 329 331 328 327 329 330 332 334 336 337 336 336 338 338 338 338 340 342 344 337 338 347 346 347 347 355 353 351 352 351 350 350 355
320 321 321 321 315 313 316 324 328 330 331 329 328 328 327 328 328 331 333 332 338 340 341 339 340 340 338 338 341 339 337 337 338 343 344 340 341 352 353 353 353 354 352 352 352
321 322 321 319 315 315 318 328 328 328 330 328 329 326 327 328 328 331 333 338 339 342 340 340 339 339 338 336 336 337 337 337 337 342 343 342 340 344 352 353 352 354 355 354 353
321 321 321 317 315 319 323 326 326 327 327 327 327 328 327 329 328 330 333 339 342 341 340 340 338 340 337 335 336 336 337 335 337 341 340 338 340 347 351 352 352 353 354 353 352
321 321 321 317 319 322 324 326 325 327 331 327 326 326 326 327 328 329 330 336 339 341 340 339 338 339 338 336 336 337 333 332 334 339 355 348 343 347 352 352 352 352 354 352 350
321 322 318 316 320 322 326 324 325 328 335 328 325 326 326 327 328 328 328 333 335 336 340 340 339 338 338 337 337 337 333 333 335 338 338 336 336 347 351 352 355 354 353 351 348
321 320 318 320 318 322 322 324 328 329 330 330 327 327 325 326 328 328 327 329 331 333 334 338 338 338 338 336 337 335 334 334 336 337 337 336 333 338 349 342 357 356 354 350 350
321 318 317 319 325 322 323 327 330 331 330 330 327 325 326 326 327 327 327 326 327 329 332 334 335 334 334 336 334 334 335 338 342 339 340 337 330 342 346 353 352 353 352 351 349
319 318 323 320 321 321 324 329 332 327 329 329 326 326 325 326 327 327 327 326 326 327 329 330 331 333 332 333 334 335 334 336 341 336 335 337 335 348 347 350 350 349 350 349 352
320 325 326 327 322 322 329 330 329 328 330 328 326 326 326 327 327 327 327 327 327 327 327 328 327 329 331 331 334 336 334 333 331 331 330 330 343 349 351 352 351 353 354 357 353
319 328 330 326 324 324 329 328 328 327 329 326 329 326 327 327 327 328 327 328 328 327 328 328 327 328 329 333 334 334 333 332 330 332 335 336 341 356 356 356 356 355 355 356 355
322 334 326 324 323 326 328 328 328 326 328 327 329 330 328 328 328 328 328 328 327 328 327 328 329 331 332 332 333 334 334 331 331 334 335 338 353 346 353 353 357 355 354 355 355
329 336 325 323 326 326 326 327 318 326 326 325 326 328 331 331 328 327 327 328 327 327 326 327 331 334 334 334 334 335 334 332 333 335 343 345 347 343 340 347 354 355 354 355 352
335 333 325 324 329 327 326 326 326 325 326 327 327 328 331 331 328 327 328 328 326 327 327 327 330 335 333 336 335 334 332 333 333 333 347 347 347 343 343 343 352 355 354 356 350
335 337 329 326 328 331 327 329 326 326 326 327 327 332 332 332 330 329 328 328 326 327 329 332 330 333 333 334 333 332 333 334 333 334 337 342 344 345 346 345 351 355 355 355 347
333 337 336 331 329 329 332 332 333 330 329 329 329 331 334 335 333 331 328 330 330 335 327 328 330 332 332 335 333 334 334 333 334 334 334 335 336 337 342 345 350 354 356 352 346
328 332 334 335 336 335 330 333 333 332 335 332 332 333 334 337 334 331 329 332 334 333 330 327 330 331 331 332 332 331 330 330 331 332 332 336 336 341 342 343 348 353 356 352 347
325 325 328 333 334 336 336 335 335 335 336 337 337 337 338 337 342 339 333 332 334 337 335 331 328 331 332 331 330 333 331 331 331 332 334 336 340 342 343 344 345 351 355 353 349
Wind_Speed
18 18 18 18 18 18 18 19 19 18 18 17 14 11 10 10 9 6 10 2 6 9 7 7 8 10 9 6 6 7 3 11 16 13 10 4 13 7 9 12 10 10 22 22 22
19 19 19 19 19 19 19 18 19 19 18 16 14 11 11 12 8 12 7 9 10 10 9 10 8 6 10 3 2 8 12 11 14 15 11 10 10 7 8 11 11 12 18 23 21
20 20 20 20 21 21 20 19 18 18 17 16 14 12 12 8 11 11 11 13 12 10 10 10 10 10 10 7 4 4 10 8 17 15 10 11 10 6 2 9 12 16 17 20 21
21 20 21 21 21 22 21 19 18 18 17 16 12 11 13 4 3 9 14 14 11 8 11 13 9 12 10 8 5 11 7 8 10 7 12 10 13 14 12 11 17 17 19 17 17
22 22 22 22 22 21 21 19 18 19 17 14 10 10 5 10 6 6 16 16 10 8 12 9 10 9 6 11 7 11 9 7 6 9 9 10 14 13 13 14 18 18 15 16 15
23 24 23 24 22 22 21 19 18 18 16 11 7 9 7 12 6 8 15 14 12 11 8 9 3 8 7 6 4 6 9 9 8 8 7 11 6 13 11 14 16 15 15 14 16
24 25 24 24 24 23 21 19 18 16 12 6 6 5 10 3 5 12 15 15 12 10 7 1 5 12 4 8 4 9 9 9 8 7 6 36 23 12 15 14 14 13 11 10 12
25 27 25 25 26 24 21 18 17 12 7 3 5 5 5 7 5 12 16 13 10 8 6 3 6 8 13 8 7 14 14 9 7 6 6 7 14 14 15 13 13 12 11 10 7
25 27 27 26 28 25 20 17 13 6 2 3 6 9 6 9 10 15 17 16 13 9 5 6 12 13 7 15 16 11 8 18 10 6 1 6 12 15 13 13 12 12 11 9 20
25 28 29 28 29 25 17 11 7 3 3 6 11 8 9 14 14 14 16 13 13 11 9 10 10 14 15 15 5 16 17 6 2 8 5 8 3 11 11 10 13 12 11 10 20
26 29 30 29 29 21 12 5 5 7 15 11 7 8 10 8 7 14 18 15 17 12 16 17 15 16 11 12 13 11 7 5 4 6 6 9 3 13 12 12 11 11 9 7 6
28 30 31 30 27 11 6 7 8 7 8 17 10 9 3 11 13 16 21 17 16 17 20 15 16 4 1 2 7 4 11 7 4 4 8 6 8 8 13 13 13 13 9 7 8
29 30 32 31 19 3 8 8 3 9 7 16 14 16 15 12 14 19 19 21 18 20 21 21 18 14 9 8 12 15 8 7 3 6 9 10 11 10 12 10 9 7 10 9 10
30 31 34 31 7 7 6 3 5 6 6 15 14 12 19 14 17 20 23 19 14 22 22 13 11 9 10 12 11 5 7 3 8 11 11 34 3 22 17 11 9 9 8 10 8
30 34 34 16 14 7 4 3 7 6 6 12 15 12 15 19 13 12 20 22 20 19 20 16 20 17 13 15 11 4 6 7 8 14 7 10 7 13 12 11 10 9 10 9 9
34 37 29 2 7 10 6 5 6 7 5 9 11 14 20 20 13 20 16 15 16 18 20 20 13 16 12 16 13 7 10 10 11 14 11 5 3 4 9 4 12 9 9 6 6
38 30 14 6 1 3 6 8 7 10 6 10 13 19 20 19 16 13 19 20 16 19 19 19 22 11 10 16 6 11 17 11 8 4 12 5 3 10 10 11 10 12 11 10 7
36 14 7 10 5 5 9 9 9 2 5 4 9 19 20 20 17 17 19 18 21 18 13 17 18 21 18 17 17 15 19 11 9 11 3 8 1 8 12 13 11 12 12 10 11
24 2 8 3 9 8 8 11 9 7 1 5 10 17 19 20 13 16 20 19 20 21 17 15 16 21 22 19 21 17 13 19 17 15 7 6 16 13 14 15 13 11 10 10 12
14 9 5 4 9 10 9 16 7 4 5 7 11 12 18 18 16 18 16 17 18 19 18 7 11 18 20 21 21 18 7 12 9 11 8 4 3 4 13 15 15 14 14 15 14
7 6 6 9 10 8 10 16 11 7 7 7 12 9 16 15 17 15 16 9 18 18 18 17 13 15 18 14 18 14 14 14 17 9 6 10 2 11 13 15 14 15 15 16 16
9 5 9 11 8 10 12 17 4 9 9 8 7 13 12 14 17 18 15 15 15 18 19 19 11 16 18 21 21 9 10 17 11 17 7 15 11 6 5 15 15 16 15 16 15
5 2 7 12 7 9 13 5 9 14 11 8 9 10 10 13 13 16 13 8 6 16 16 17 11 12 18 13 9 11 14 16 16 11 12 13 9 8 6 6 17 17 15 16 15
5 5 6 7 11 13 4 9 14 14 14 11 9 10 10 13 12 13 13 9 7 11 5 12 19 14 15 14 16 19 19 13 16 11 4 5 5 16 11 7 15 16 19 18 16
5 3 6 6 10 10 3 9 7 9 12 8 12 16 13 12 13 12 17 16 11 7 8 13 16 19 13 7 6 15 12 10 11 15 16 9 5 9 11 8 11 17 17 18 18
5 4 5 10 3 7 6 12 10 8 3 13 14 12 14 16 12 14 16 14 14 14 14 17 15 19 19 18 11 12 12 13 11 13 17 7 14 16 9 8 13 18 19 20 19
9 6 5 3 11 9 5 5 3 4 13 13 8 7 12 13 12 11 14 16 17 14 16 16 14 11 14 17 12 16 16 19 15 16 12 11 9 3 8 3 10 16 19 19 19
Wind_Direction
3 359 358 356 355 353 351 348 346 345 344 344 341 337 330 321 308 252 227 130 198 208 218 243 239 249 251 237 261 265 48 55 58 71 102 58 80 67 109 97 78 9 135 126 146
1 358 355 352 350 348 346 342 341 341 341 340 337 332 329 323 284 235 212 219 209 205 236 227 234 218 227 179 225 278 67 70 61 68 85 64 72 117 120 130 113 91 104 133 150
0 357 353 349 345 343 341 341 340 339 337 335 331 327 326 324 250 163 195 195 207 214 260 284 273 256 230 199 170 16 79 87 68 69 84 88 79 61 146 101 136 129 136 149 156
1 356 350 346 343 340 336 334 334 333 331 328 323 322 324 262 196 126 176 187 190 216 266 260 235 223 215 138 147 109 78 70 94 126 83 86 81 73 74 89 117 134 140 149 162
360 354 350 345 341 337 332 330 329 328 326 322 311 316 317 221 92 166 184 189 206 234 251 262 240 252 156 114 173 104 100 118 125 110 95 85 76 84 90 110 128 130 140 150 159
354 353 349 345 340 335 329 326 323 322 323 315 296 312 255 244 110 164 176 189 215 218 230 248 347 308 118 134 79 107 100 124 161 115 113 108 109 107 113 128 134 149 152 162 152
351 350 348 346 340 334 327 324 318 317 321 306 292 307 258 337 141 170 178 192 207 234 251 88 299 246 171 139 129 154 148 159 154 160 130 75 323 117 140 141 142 162 177 163 173
348 347 345 344 341 334 327 319 312 308 311 278 288 273 276 141 160 182 187 197 211 217 279 306 276 280 256 88 192 221 186 79 154 172 161 175 205 141 149 149 156 159 172 178 181
346 344 342 342 340 333 325 317 305 286 257 248 268 229 220 162 201 190 192 201 198 208 217 284 251 244 186 220 202 217 111 266 134 185 333 261 135 154 164 169 166 170 184 202 67
342 342 339 340 339 330 324 315 277 237 246 250 267 258 212 197 183 191 193 226 196 199 206 229 226 220 218 222 197 299 165 158 350 147 233 258 160 148 180 191 167 207 197 192 149
340 340 336 339 336 327 325 263 210 202 216 228 199 235 140 152 144 198 186 207 210 210 220 209 233 227 290 58 145 262 14 291 109 90 276 262 285 148 182 199 203 219 199 197 219
340 338 335 337 333 322 303 258 44 345 279 213 245 235 256 189 188 194 184 198 203 213 223 210 242 18 354 9 280 244 243 218 114 202 236 208 245 157 181 203 205 190 192 218 206
339 336 333 336 329 271 272 306 322 340 253 208 205 213 202 211 215 192 193 204 198 219 219 236 207 182 205 198 246 243 273 31 292 197 232 286 223 336 179 196 206 194 187 215 219
337 335 333 334 302 325 256 192 294 308 268 171 198 212 203 201 228 196 198 206 222 226 231 223 199 215 205 243 257 85 316 250 265 259 108 258 171 207 167 173 185 188 206 215 210
336 332 328 327 300 263 39 267 299 234 259 139 156 152 181 202 179 210 189 220 225 227 236 211 238 184 241 231 263 323 314 288 246 269 301 211 265 147 144 157 173 180 191 199 178
334 330 321 313 225 251 285 279 241 230 243 154 156 194 191 206 182 182 203 229 228 242 237 259 222 244 224 229 252 305 269 241 238 248 259 151 27 136 154 77 128 155 186 157 154
332 325 296 245 351 259 241 233 221 245 90 156 179 179 191 192 196 163 192 200 213 216 225 220 247 241 253 225 195 222 244 231 297 225 290 92 319 82 90 97 144 165 168 160 143
334 314 287 220 245 247 222 226 251 252 203 119 177 174 197 188 197 191 197 203 214 219 212 216 211 224 216 231 206 219 249 268 214 290 85 184 225 106 112 128 136 152 165 175 161
337 266 225 222 211 216 228 226 221 250 10 223 207 187 200 192 208 203 207 211 204 225 234 207 227 192 217 206 243 235 224 275 301 284 240 245 107 107 129 146 155 148 151 162 152
323 254 137 200 190 208 232 247 277 318 346 252 226 216 197 202 198 200 197 223 224 202 243 252 221 186 195 198 220 265 328 234 226 257 280 296 85 39 166 162 165 157 158 151 149
264 235 123 154 177 216 230 237 234 183 228 259 251 210 223 202 195 216 226 203 220 184 222 253 249 162 174 204 199 207 242 253 279 262 276 252 199 224 174 166 167 165 158 154 145
284 243 149 174 204 218 233 253 41 268 202 252 291 293 282 227 196 228 225 210 192 218 199 229 227 171 191 205 232 284 260 231 226 234 29 318 144 146 118 153 157 161 158 152 150
275 45 165 211 238 213 239 266 252 250 241 233 233 232 252 270 194 223 203 116 183 214 201 215 241 203 192 174 208 240 246 267 272 259 181 201 128 98 114 129 149 160 168 148 160
273 206 150 212 272 286 209 242 228 201 256 274 267 287 244 245 226 205 211 143 169 229 53 243 234 251 187 205 197 204 235 213 272 275 39 35 279 164 117 115 146 160 168 159 171
249 344 13 185 226 239 282 303 275 236 205 225 234 243 238 226 221 231 212 143 195 155 210 236 235 252 255 244 263 191 205 219 245 286 299 308 5 325 77 135 167 162 167 170 177
313 339 346 286 263 256 204 235 251 237 274 228 236 209 237 255 198 199 199 170 187 181 214 213 243 233 256 237 200 254 251 274 253 247 267 298 293 64 86 138 170 173 176 180 181
359 277 275 225 244 236 273 120 343 326 254 265 332 317 249 259 342 303 205 187 200 185 204 216 232 218 242 238 230 232 248 264 251 257 240 260 80 36 143 179 195 187 177 182 184